Time,TemperatureF,DewpointF,PressureIn,WindDirection,WindDirectionDegrees,WindSpeedMPH,WindSpeedGustMPH,Humidity,HourlyPrecipIn,Conditions,Clouds,dailyrainin,SolarRadiationWatts/m^2,SoftwareType,DateUTC
2013-02-14 00:02:00,20.0,18.0,-100.00,WSW,248,0.0,2.0,90,0.00,,,0.00,0.000000,,2013-02-14 05:02:00,
2013-02-14 00:11:00,20.0,18.0,-100.00,WSW,248,0.0,2.0,90,0.00,,,0.00,0.000000,,2013-02-14 05:11:00,
2013-02-14 00:22:00,20.0,18.0,-100.00,WSW,248,0.0,2.0,90,0.00,,,0.00,0.000000,,2013-02-14 05:22:00,
2013-02-14 00:52:00,18.0,16.0,-100.00,NE,43,1.0,2.0,91,0.00,,,0.00,0.000000,,2013-02-14 05:52:00,
2013-02-14 01:02:00,18.0,16.0,-100.00,NE,43,1.0,2.0,91,0.00,,,0.00,0.000000,,2013-02-14 06:02:00,
2013-02-14 01:11:00,18.0,16.0,-100.00,NE,43,1.0,2.0,91,0.00,,,0.00,0.000000,,2013-02-14 06:11:00,
2013-02-14 01:21:00,18.0,16.0,-100.00,NE,43,1.0,2.0,91,0.00,,,0.00,0.000000,,2013-02-14 06:21:00,
2013-02-14 01:52:00,21.0,19.0,-100.00,SW,230,2.0,3.0,91,0.00,,,0.00,0.000000,,2013-02-14 06:52:00,
2013-02-14 02:01:00,21.0,19.0,-100.00,SW,230,2.0,3.0,91,0.00,,,0.00,0.000000,,2013-02-14 07:01:00,
2013-02-14 02:11:00,21.0,19.0,-100.00,SW,230,2.0,3.0,91,0.00,,,0.00,0.000000,,2013-02-14 07:11:00,
2013-02-14 02:21:00,21.0,19.0,-100.00,SW,230,2.0,3.0,91,0.00,,,0.00,0.000000,,2013-02-14 07:21:00,
2013-02-14 02:52:00,19.0,17.0,-100.00,SSW,201,2.0,4.0,90,0.00,,,0.00,0.000000,,2013-02-14 07:52:00,
2013-02-14 03:01:00,19.0,17.0,-100.00,SSW,201,2.0,4.0,90,0.00,,,0.00,0.000000,,2013-02-14 08:01:00,
2013-02-14 03:11:00,19.0,17.0,-100.00,SSW,201,2.0,4.0,90,0.00,,,0.00,0.000000,,2013-02-14 08:11:00,
2013-02-14 03:22:00,19.0,17.0,-100.00,SSW,201,2.0,4.0,90,0.00,,,0.00,0.000000,,2013-02-14 08:22:00,
2013-02-14 03:52:00,22.0,20.0,-100.00,WSW,237,3.0,5.0,91,0.00,,,0.00,0.000000,,2013-02-14 08:52:00,
2013-02-14 04:02:00,22.0,20.0,-100.00,WSW,237,3.0,5.0,91,0.00,,,0.00,0.000000,,2013-02-14 09:02:00,
2013-02-14 04:11:00,22.0,20.0,-100.00,WSW,237,3.0,5.0,91,0.00,,,0.00,0.000000,,2013-02-14 09:11:00,
2013-02-14 04:21:00,22.0,20.0,-100.00,WSW,237,3.0,5.0,91,0.00,,,0.00,0.000000,,2013-02-14 09:21:00,
2013-02-14 04:52:00,22.0,20.0,-100.00,South,190,0.0,4.0,90,0.00,,,-99.99,0.000000,,2013-02-14 09:52:00,
2013-02-14 05:02:00,22.0,20.0,-100.00,South,190,0.0,4.0,90,0.00,,,-99.99,0.000000,,2013-02-14 10:02:00,
2013-02-14 05:11:00,22.0,20.0,-100.00,South,190,0.0,4.0,90,0.00,,,-99.99,0.000000,,2013-02-14 10:11:00,
2013-02-14 05:21:00,22.0,20.0,-100.00,South,190,0.0,4.0,90,0.00,,,-99.99,0.000000,,2013-02-14 10:21:00,
2013-02-14 05:52:00,25.0,22.0,-100.00,WSW,238,3.0,5.0,89,0.00,,,0.00,0.000000,,2013-02-14 10:52:00,
2013-02-14 06:02:00,25.0,22.0,-100.00,WSW,238,3.0,5.0,89,0.00,,,0.00,0.000000,,2013-02-14 11:02:00,
2013-02-14 06:11:00,25.0,22.0,-100.00,WSW,238,3.0,5.0,89,0.00,,,0.00,0.000000,,2013-02-14 11:11:00,
2013-02-14 06:22:00,25.0,22.0,-100.00,WSW,238,3.0,5.0,89,0.00,,,0.00,0.000000,,2013-02-14 11:22:00,
2013-02-14 06:52:00,26.0,22.0,-100.00,WSW,252,1.0,6.0,86,0.00,,,0.00,0.000000,,2013-02-14 11:52:00,
2013-02-14 07:02:00,26.0,22.0,-100.00,WSW,252,1.0,6.0,86,0.00,,,0.00,0.000000,,2013-02-14 12:02:00,
2013-02-14 07:12:00,26.0,22.0,-100.00,WSW,252,1.0,6.0,86,0.00,,,0.00,0.000000,,2013-02-14 12:12:00,
2013-02-14 07:22:00,26.0,22.0,-100.00,WSW,252,1.0,6.0,86,0.00,,,0.00,0.000000,,2013-02-14 12:22:00,
2013-02-14 07:53:00,26.0,23.0,-100.00,SE,138,1.0,2.0,89,0.00,,,0.00,1.000000,,2013-02-14 12:53:00,
2013-02-14 08:02:00,26.0,23.0,-100.00,SE,138,1.0,2.0,89,0.00,,,0.00,1.000000,,2013-02-14 13:02:00,
2013-02-14 08:11:00,26.0,23.0,-100.00,SE,138,1.0,2.0,89,0.00,,,0.00,1.000000,,2013-02-14 13:11:00,
2013-02-14 08:21:00,26.0,23.0,-100.00,SE,138,1.0,2.0,89,0.00,,,0.00,1.000000,,2013-02-14 13:21:00,
2013-02-14 08:52:00,29.0,25.0,-100.00,SSW,195,3.0,7.0,84,0.00,,,0.00,25.000000,,2013-02-14 13:52:00,
2013-02-14 09:01:00,29.0,25.0,-100.00,SSW,195,3.0,7.0,84,0.00,,,0.00,25.000000,,2013-02-14 14:01:00,
2013-02-14 09:11:00,29.0,25.0,-100.00,SSW,195,3.0,7.0,84,0.00,,,0.00,25.000000,,2013-02-14 14:11:00,
2013-02-14 09:21:00,29.0,25.0,-100.00,SSW,195,3.0,7.0,84,0.00,,,0.00,25.000000,,2013-02-14 14:21:00,
2013-02-14 09:52:00,32.0,25.0,-100.00,South,177,3.0,9.0,75,0.00,,,0.00,102.000000,,2013-02-14 14:52:00,
2013-02-14 10:02:00,32.0,25.0,-100.00,South,177,3.0,9.0,75,0.00,,,0.00,102.000000,,2013-02-14 15:02:00,
2013-02-14 10:11:00,32.0,25.0,-100.00,South,177,3.0,9.0,75,0.00,,,0.00,102.000000,,2013-02-14 15:11:00,
2013-02-14 10:21:00,32.0,25.0,-100.00,South,177,3.0,9.0,75,0.00,,,0.00,102.000000,,2013-02-14 15:21:00,
2013-02-14 10:52:00,35.0,24.0,-100.00,South,177,3.0,9.0,63,0.00,,,0.00,222.000000,,2013-02-14 15:52:00,
2013-02-14 11:02:00,35.0,24.0,-100.00,South,177,3.0,9.0,63,0.00,,,0.00,222.000000,,2013-02-14 16:02:00,
2013-02-14 11:11:00,35.0,24.0,-100.00,South,177,3.0,9.0,63,0.00,,,0.00,222.000000,,2013-02-14 16:11:00,
2013-02-14 11:21:00,35.0,24.0,-100.00,South,177,3.0,9.0,63,0.00,,,0.00,222.000000,,2013-02-14 16:21:00,
2013-02-14 11:52:00,37.0,22.0,-100.00,SSE,154,3.0,8.0,54,0.00,,,0.00,397.000000,,2013-02-14 16:52:00,
2013-02-14 12:01:00,37.0,22.0,-100.00,SSE,154,3.0,8.0,54,0.00,,,0.00,397.000000,,2013-02-14 17:01:00,
2013-02-14 12:11:00,37.0,22.0,-100.00,SSE,154,3.0,8.0,54,0.00,,,0.00,397.000000,,2013-02-14 17:11:00,
2013-02-14 12:21:00,37.0,22.0,-100.00,SSE,154,3.0,8.0,54,0.00,,,0.00,397.000000,,2013-02-14 17:21:00,
2013-02-14 12:52:00,43.0,23.0,-100.00,SSE,151,3.0,8.0,44,0.00,,,0.00,356.000000,,2013-02-14 17:52:00,
2013-02-14 13:02:00,43.0,23.0,-100.00,SSE,151,3.0,8.0,44,0.00,,,0.00,356.000000,,2013-02-14 18:02:00,
2013-02-14 13:11:00,43.0,23.0,-100.00,SSE,151,3.0,8.0,44,0.00,,,0.00,356.000000,,2013-02-14 18:11:00,
2013-02-14 13:23:00,43.0,23.0,-100.00,SSE,151,3.0,8.0,44,0.00,,,0.00,356.000000,,2013-02-14 18:23:00,
2013-02-14 13:52:00,40.0,23.0,-100.00,SW,223,5.0,11.0,51,0.00,,,0.00,284.000000,,2013-02-14 18:52:00,
2013-02-14 14:02:00,40.0,23.0,-100.00,SW,223,5.0,11.0,51,0.00,,,0.00,284.000000,,2013-02-14 19:02:00,
2013-02-14 14:11:00,40.0,23.0,-100.00,SW,223,5.0,11.0,51,0.00,,,0.00,284.000000,,2013-02-14 19:11:00,
2013-02-14 14:22:00,40.0,23.0,-100.00,SW,223,5.0,11.0,51,0.00,,,0.00,284.000000,,2013-02-14 19:22:00,
2013-02-14 14:52:00,38.0,27.0,-100.00,West,265,6.0,12.0,65,0.00,,,0.00,175.000000,,2013-02-14 19:52:00,
2013-02-14 15:01:00,38.0,27.0,-100.00,West,265,6.0,12.0,65,0.00,,,0.00,175.000000,,2013-02-14 20:01:00,
2013-02-14 15:11:00,38.0,27.0,-100.00,West,265,6.0,12.0,65,0.00,,,0.00,175.000000,,2013-02-14 20:11:00,
2013-02-14 15:21:00,38.0,27.0,-100.00,West,265,6.0,12.0,65,0.00,,,0.00,175.000000,,2013-02-14 20:21:00,
2013-02-14 15:52:00,38.0,29.0,-100.00,SSW,203,3.0,9.0,71,0.00,,,0.00,132.000000,,2013-02-14 20:52:00,
2013-02-14 16:02:00,38.0,29.0,-100.00,SSW,203,3.0,9.0,71,0.00,,,0.00,132.000000,,2013-02-14 21:02:00,
2013-02-14 16:11:00,38.0,29.0,-100.00,SSW,203,3.0,9.0,71,0.00,,,0.00,132.000000,,2013-02-14 21:11:00,
2013-02-14 16:22:00,38.0,29.0,-100.00,SSW,203,3.0,9.0,71,0.00,,,0.00,132.000000,,2013-02-14 21:22:00,
2013-02-14 16:52:00,37.0,31.0,-100.00,SE,124,2.0,4.0,78,0.00,,,0.00,74.000000,,2013-02-14 21:52:00,
2013-02-14 17:02:00,37.0,31.0,-100.00,SE,124,2.0,4.0,78,0.00,,,0.00,74.000000,,2013-02-14 22:02:00,
2013-02-14 17:11:00,37.0,31.0,-100.00,SE,124,2.0,4.0,78,0.00,,,0.00,74.000000,,2013-02-14 22:11:00,
2013-02-14 17:21:00,37.0,31.0,-100.00,SE,124,2.0,4.0,78,0.00,,,0.00,74.000000,,2013-02-14 22:21:00,
2013-02-14 17:52:00,35.0,32.0,-100.00,SSW,199,2.0,5.0,89,0.01,,,0.01,14.000000,,2013-02-14 22:52:00,
2013-02-14 18:01:00,35.0,32.0,-100.00,SSW,199,2.0,5.0,89,0.01,,,0.01,14.000000,,2013-02-14 23:01:00,
2013-02-14 18:11:00,35.0,32.0,-100.00,SSW,199,2.0,5.0,89,0.01,,,0.01,14.000000,,2013-02-14 23:11:00,
2013-02-14 18:21:00,35.0,32.0,-100.00,SSW,199,2.0,5.0,89,0.01,,,0.01,14.000000,,2013-02-14 23:21:00,
2013-02-14 18:52:00,34.0,32.0,-100.00,SE,139,1.0,4.0,93,0.01,,,0.02,1.000000,,2013-02-14 23:52:00,
2013-02-14 19:02:00,34.0,32.0,-100.00,SE,139,1.0,4.0,93,0.01,,,0.02,1.000000,,2013-02-15 00:02:00,
2013-02-14 19:11:00,34.0,32.0,-100.00,SE,139,1.0,4.0,93,0.01,,,0.02,1.000000,,2013-02-15 00:11:00,
2013-02-14 19:22:00,34.0,32.0,-100.00,SE,139,1.0,4.0,93,0.01,,,0.02,1.000000,,2013-02-15 00:22:00,
2013-02-14 19:52:00,34.0,33.0,-100.00,SSE,157,1.0,3.0,95,0.01,,,0.03,0.000000,,2013-02-15 00:52:00,
2013-02-14 20:02:00,34.0,33.0,-100.00,SSE,157,1.0,3.0,95,0.01,,,0.03,0.000000,,2013-02-15 01:02:00,
2013-02-14 20:11:00,34.0,33.0,-100.00,SSE,157,1.0,3.0,95,0.01,,,0.03,0.000000,,2013-02-15 01:11:00,
2013-02-14 20:21:00,34.0,33.0,-100.00,SSE,157,1.0,3.0,95,0.01,,,0.03,0.000000,,2013-02-15 01:21:00,
2013-02-14 20:52:00,35.0,33.0,-100.00,SW,214,5.0,17.0,92,0.02,,,0.05,0.000000,,2013-02-15 01:52:00,
2013-02-14 21:01:00,35.0,33.0,-100.00,SW,214,5.0,17.0,92,0.02,,,0.05,0.000000,,2013-02-15 02:01:00,
2013-02-14 21:11:00,35.0,33.0,-100.00,SW,214,5.0,17.0,92,0.02,,,0.05,0.000000,,2013-02-15 02:11:00,
2013-02-14 21:21:00,35.0,33.0,-100.00,SW,214,5.0,17.0,92,0.02,,,0.05,0.000000,,2013-02-15 02:21:00,
2013-02-14 21:52:00,34.0,32.0,-100.00,SW,215,6.0,12.0,93,0.03,,,0.08,0.000000,,2013-02-15 02:52:00,
2013-02-14 22:02:00,34.0,32.0,-100.00,SW,215,6.0,12.0,93,0.03,,,0.08,0.000000,,2013-02-15 03:02:00,
2013-02-14 22:11:00,34.0,32.0,-100.00,SW,215,6.0,12.0,93,0.03,,,0.08,0.000000,,2013-02-15 03:11:00,
2013-02-14 22:22:00,34.0,32.0,-100.00,SW,215,6.0,12.0,93,0.03,,,0.08,0.000000,,2013-02-15 03:22:00,
2013-02-14 22:52:00,35.0,33.0,-100.00,SW,222,4.0,12.0,93,0.01,,,0.09,0.000000,,2013-02-15 03:52:00,
2013-02-14 23:02:00,35.0,33.0,-100.00,SW,222,4.0,12.0,93,0.01,,,0.09,0.000000,,2013-02-15 04:02:00,
2013-02-14 23:11:00,35.0,33.0,-100.00,SW,222,4.0,12.0,93,0.01,,,0.09,0.000000,,2013-02-15 04:11:00,
2013-02-14 23:21:00,35.0,33.0,-100.00,SW,222,4.0,12.0,93,0.01,,,0.09,0.000000,,2013-02-15 04:21:00,
2013-02-14 23:52:00,37.0,34.0,-100.00,SW,221,8.0,18.0,88,0.01,,,0.10,0.000000,,2013-02-15 04:52:00,